Change the Weather History Date:

Wednesday, October 31, 2012

  Actual Average (KRDM) Record (KRDM)
Temperature  
Mean Temperature 52 °F 42 °F  
Max Temperature 62 °F 56 °F 77 °F (1988)
Min Temperature 41 °F 29 °F -3 °F (2002)
Degree Days  
Heating Degree Days 14 22  
Month to date heating degree days 547  
Since 1 July heating degree days 945  
Cooling Degree Days 0 0  
Month to date cooling degree days 0  
Year to date cooling degree days 222  
Growing Degree Days 2 (Base 50)    
Moisture  
Dew Point 27 °F    
Average Humidity 45    
Maximum Humidity 70    
Minimum Humidity 19    
Precipitation  
Precipitation 0.01 in 0.03 in 0.25 in (1997)
Month to date precipitation 0.64  
Year to date precipitation 6.78  
Sea Level Pressure  
Sea Level Pressure 29.81 in    
Wind  
Wind Speed 4 mph (South)    
Max Wind Speed 22 mph    
Max Gust Speed 32 mph    
Visibility 10 miles    
Events Rain    
T = Trace of Precipitation, MM = Missing Value Source: NWS Daily Summary

Daily Weather History Graph

Daily Weather History Graph

Search for Another Location

Airport or City:

Trip Planner

Search our weather history database for the weather conditions in past years. The results will help you decide how hot, cold, wet, or windy it might be!

Date:

Astronomy

Oct. 31, 2012 Rise Set
Actual Time 7:40 AM PDT 5:55 PM PDT
Civil Twilight 7:10 AM PDT 6:25 PM PDT
Nautical Twilight 6:36 AM PDT 6:59 PM PDT
Astronomical Twilight 6:03 AM PDT 7:32 PM PDT
Moon 7:06 PM PDT (10/31) 9:30 AM PDT (10/31)
Length of Visible Light 11h 14m
Length of Day
10h 14m
Waning Gibbous, 97% of the Moon is Illuminated
Oct 31
Waning Gibbous
Nov 6
Last Quarter
Nov 13
New
Nov 20
First Quarter
Nov 28
Full

Hourly Weather History & Observations

Time (PDT) Temp. Windchill Dew Point Humidity Pressure Visibility Wind Dir Wind Speed Gust Speed Precip Events Conditions
12:15 AM 55.4 °F - 23.0 °F 29% 29.87 in 10.0 mi SE 6.9 mph - N/A   Clear
12:35 AM 55.4 °F - 23.0 °F 29% 29.87 in 10.0 mi Calm Calm - N/A   Clear
12:55 AM 53.6 °F - 23.0 °F 30% 29.87 in 10.0 mi Calm Calm - N/A   Clear
1:15 AM 51.8 °F - 24.8 °F 35% 29.87 in 10.0 mi Calm Calm - N/A   Clear
1:35 AM 48.2 °F - 26.6 °F 43% 29.86 in 10.0 mi Calm Calm - N/A   Clear
1:55 AM 48.2 °F - 28.4 °F 46% 29.87 in 10.0 mi Calm Calm - N/A   Clear
2:15 AM 46.4 °F - 28.4 °F 50% 29.86 in 10.0 mi Calm Calm - N/A   Clear
2:35 AM 46.4 °F - 28.4 °F 50% 29.86 in 10.0 mi Calm Calm - N/A   Clear
2:55 AM 46.4 °F - 26.6 °F 46% 29.85 in 10.0 mi Calm Calm - N/A   Clear
3:15 AM 46.4 °F - 26.6 °F 46% 29.85 in 10.0 mi Calm Calm - N/A   Clear
3:35 AM 44.6 °F - 28.4 °F 53% 29.84 in 10.0 mi Calm Calm - N/A   Clear
3:55 AM 46.4 °F 45.2 °F 28.4 °F 50% 29.83 in 10.0 mi SSW 3.5 mph - N/A   Clear
4:15 AM 44.6 °F 43.1 °F 28.4 °F 53% 29.83 in 10.0 mi SSW 3.5 mph - N/A   Clear
4:35 AM 46.4 °F 43.5 °F 24.8 °F 43% 29.82 in 10.0 mi SSE 5.8 mph - N/A   Clear
4:55 AM 44.6 °F 40.7 °F 24.8 °F 46% 29.82 in 10.0 mi SSE 6.9 mph - N/A   Clear
5:15 AM 44.6 °F 42.2 °F 24.8 °F 46% 29.81 in 10.0 mi South 4.6 mph - N/A   Clear
5:35 AM 44.6 °F 43.1 °F 24.8 °F 46% 29.82 in 10.0 mi SW 3.5 mph - N/A   Clear
5:55 AM 44.6 °F - 24.8 °F 46% 29.81 in 10.0 mi Calm Calm - N/A   Clear
6:15 AM 46.4 °F - 24.8 °F 43% 29.81 in 10.0 mi Calm Calm - N/A   Clear
6:35 AM 46.4 °F 45.2 °F 24.8 °F 43% 29.80 in 10.0 mi SSE 3.5 mph - N/A   Clear
6:55 AM 44.6 °F - 26.6 °F 49% 29.80 in 10.0 mi Calm Calm - N/A   Clear
7:15 AM 44.6 °F 42.2 °F 24.8 °F 46% 29.80 in 10.0 mi SSW 4.6 mph - N/A   Clear
7:35 AM 46.4 °F - 24.8 °F 43% 29.79 in 10.0 mi Calm Calm - N/A   Clear
7:55 AM 44.6 °F - 24.8 °F 46% 29.78 in 10.0 mi Calm Calm - N/A   Clear
8:15 AM 44.6 °F - 24.8 °F 46% 29.79 in 6.0 mi Calm Calm - N/A   Haze
8:35 AM 44.6 °F - 24.8 °F 46% 29.79 in 10.0 mi Calm Calm - N/A   Clear
8:55 AM 50.0 °F - 19.4 °F 30% 29.78 in 10.0 mi South 8.1 mph - N/A   Clear
9:15 AM 55.4 °F - 17.6 °F 23% 29.79 in 10.0 mi SSW 9.2 mph - N/A   Clear
9:35 AM 55.4 °F - 19.4 °F 25% 29.78 in 10.0 mi South 5.8 mph - N/A   Clear
9:55 AM 57.2 °F - 17.6 °F 21% 29.78 in 10.0 mi South 4.6 mph - N/A   Clear
10:15 AM 57.2 °F - 19.4 °F 23% 29.78 in 10.0 mi South 6.9 mph - N/A   Clear
10:35 AM 57.2 °F - 17.6 °F 21% 29.78 in 10.0 mi SSW 4.6 mph - N/A   Clear
10:55 AM 57.2 °F - 23.0 °F 27% 29.78 in 10.0 mi WNW 4.6 mph - N/A   Clear
11:15 AM 55.4 °F - 24.8 °F 31% 29.78 in 10.0 mi Calm Calm - N/A   Clear
11:35 AM 57.2 °F - 23.0 °F 27% 29.76 in 10.0 mi Calm Calm - N/A   Clear
11:55 AM 59.0 °F - 21.2 °F 23% 29.76 in 10.0 mi Calm Calm - N/A   Clear
12:15 PM 59.0 °F - 21.2 °F 23% 29.77 in 10.0 mi North 4.6 mph - N/A   Partly Cloudy
12:55 PM 62.6 °F - 19.4 °F 19% 29.74 in 10.0 mi South 13.8 mph 19.6 mph N/A   Partly Cloudy
1:15 PM 62.6 °F - 21.2 °F 20% 29.73 in 10.0 mi SSW 16.1 mph 24.2 mph N/A   Scattered Clouds
1:35 PM 62.6 °F - 23.0 °F 22% 29.73 in 10.0 mi SSW 12.7 mph 19.6 mph N/A   Mostly Cloudy
1:55 PM 62.6 °F - 23.0 °F 22% 29.73 in 10.0 mi WSW 12.7 mph 25.3 mph N/A   Mostly Cloudy
2:15 PM 60.8 °F - 26.6 °F 27% 29.75 in 10.0 mi SW 15.0 mph 23.0 mph N/A Rain Light Rain
2:35 PM 57.2 °F - 32.0 °F 38% 29.77 in 10.0 mi WSW 20.7 mph 32.2 mph N/A Rain Light Rain
2:55 PM 53.6 °F - 35.6 °F 51% 29.80 in 8.0 mi SW 21.9 mph 29.9 mph N/A Rain Light Rain
3:35 PM 50.0 °F - 39.2 °F 66% 29.83 in 10.0 mi SW 12.7 mph - 0.01 in   Scattered Clouds
3:55 PM 50.0 °F - 37.4 °F 62% 29.83 in 10.0 mi SW 13.8 mph 18.4 mph 0.01 in Rain Light Rain
4:35 PM 48.2 °F - 37.4 °F 66% 29.85 in 10.0 mi SSW 11.5 mph - N/A Rain Light Rain
4:55 PM 48.2 °F - 37.4 °F 66% 29.86 in 10.0 mi South 8.1 mph - N/A Rain Light Rain
5:35 PM 46.4 °F 40.1 °F 33.8 °F 62% 29.85 in 10.0 mi SSW 15.0 mph - N/A   Clear
5:55 PM 46.4 °F 41.9 °F 32.0 °F 57% 29.83 in 10.0 mi South 9.2 mph - N/A   Clear
6:15 PM 46.4 °F 43.5 °F 32.0 °F 57% 29.83 in 10.0 mi SE 5.8 mph - N/A   Clear
6:35 PM 44.6 °F 43.1 °F 32.0 °F 61% 29.82 in 10.0 mi South 3.5 mph - N/A   Clear
6:55 PM 44.6 °F 40.2 °F 32.0 °F 61% 29.81 in 10.0 mi SSE 8.1 mph - N/A   Clear
7:15 PM 46.4 °F 43.5 °F 32.0 °F 57% 29.82 in 10.0 mi South 5.8 mph - N/A   Clear
7:35 PM 46.4 °F 42.9 °F 32.0 °F 57% 29.83 in 10.0 mi SSW 6.9 mph - N/A   Clear
7:55 PM 46.4 °F 42.4 °F 32.0 °F 57% 29.82 in 10.0 mi SSW 8.1 mph 20.7 mph N/A   Clear
8:15 PM 44.6 °F 40.2 °F 32.0 °F 61% 29.82 in 10.0 mi South 8.1 mph - N/A   Clear
8:35 PM 44.6 °F - 32.0 °F 61% 29.83 in 10.0 mi Calm Calm - N/A   Partly Cloudy
8:55 PM 42.8 °F - 32.0 °F 66% 29.82 in 10.0 mi Calm Calm - N/A   Partly Cloudy
9:15 PM 41.0 °F 37.1 °F 32.0 °F 70% 29.82 in 10.0 mi SSE 5.8 mph - N/A   Clear
9:35 PM 42.8 °F 38.0 °F 32.0 °F 66% 29.82 in 10.0 mi SSE 8.1 mph - N/A   Partly Cloudy
9:55 PM 44.6 °F 40.7 °F 32.0 °F 61% 29.82 in 10.0 mi SE 6.9 mph - N/A   Scattered Clouds
10:15 PM 44.6 °F 43.1 °F 32.0 °F 61% 29.82 in 10.0 mi SE 3.5 mph - N/A   Scattered Clouds
10:35 PM 44.6 °F 40.7 °F 32.0 °F 61% 29.82 in 10.0 mi ESE 6.9 mph - N/A   Scattered Clouds
10:55 PM 44.6 °F 41.4 °F 32.0 °F 61% 29.83 in 10.0 mi ESE 5.8 mph - N/A   Partly Cloudy
11:15 PM 44.6 °F 40.7 °F 30.2 °F 57% 29.82 in 10.0 mi ESE 6.9 mph - N/A   Partly Cloudy
11:35 PM 44.6 °F 39.7 °F 28.4 °F 53% 29.81 in 10.0 mi ESE 9.2 mph - N/A   Clear
11:55 PM 44.6 °F 43.1 °F 28.4 °F 53% 29.82 in 10.0 mi SE 3.5 mph - N/A   Partly Cloudy